Location: Nianha
(10.8000°N, 4.6333°W)
Time: 09:39:39
(UTC+00:00)

NOSS 3-1 (A) - Pass Details

Date: 14 November 2019
Orbit: 766 x 1446 km, 63.4° (Epoch: 21 January)

Event Time Altitude Azimuth Distance (km) Brightness Sun altitude
Exits shadow 05:08:25 13° 322° (NW) 3,222 5.7 -16.1°
Maximum altitude 05:16:05 55° 248° (WSW) 1,684 4.4 -14.3°
Drops below altitude 10° 05:24:41 10° 173° (S) 3,529 6.7 -12.3°
Sets 05:27:40 0° 169° (SSE) 4,469 7.3 -11.6°
